Location: Unnamed
(47.6264°N, 122.3366°W)
Time: 04:48:07
(UTC-07:00)

ELYUSIUM/LOWER FREE FLYE - Visible Passes

Search period start: 05 August 2020 00:00
Search period end: 15 August 2020 00:00
Orbit: 570 x 590 km, 97.7° (Epoch: 05 August)

Date Brightness Start Highest point End Pass type
(mag) Time Alt. Az. Time Alt. Az. Time Alt. Az.
05 Aug ? 00:05:03 16° WSW 00:06:02 17° W 00:08:44 10° NW visible
05 Aug ? 22:33:48 32° SE 22:35:23 54° ENE 22:39:23 10° N visible
06 Aug ? 00:10:09 14° WSW 00:11:04 15° W 00:13:27 10° NW visible
06 Aug ? 22:38:54 37° SE 22:40:20 62° ENE 22:44:23 10° N visible
07 Aug ? 00:15:14 13° WSW 00:16:05 13° W 00:18:07 10° WNW visible
07 Aug ? 22:44:00 41° SE 22:45:18 70° ENE 22:49:23 10° N visible
08 Aug ? 00:20:20 11° W 00:21:07 12° W 00:22:40 10° WNW visible
08 Aug ? 22:49:06 46° SSE 22:50:15 79° ENE 22:54:22 10° N visible
09 Aug ? 00:25:26 10° W 00:26:09 10° W 00:26:53 10° WNW visible
09 Aug ? 21:19:31 10° ENE 21:20:34 11° ENE 21:21:38 10° NE visible
09 Aug ? 22:54:12 50° SSE 22:55:13 89° E 22:59:20 10° NNW visible
10 Aug ? 21:23:51 10° E 21:25:27 12° ENE 21:27:04 10° NE visible
10 Aug ? 22:59:17 54° S 23:00:10 81° WSW 23:04:17 10° NNW visible
11 Aug ? 21:28:21 10° E 21:30:21 13° ENE 21:32:21 10° NNE visible
11 Aug ? 23:04:23 55° SSW 23:05:08 72° WSW 23:09:14 10° NNW visible
12 Aug ? 21:33:08 11° E 21:35:15 15° ENE 21:37:34 10° NNE visible
12 Aug ? 23:09:28 54° SW 23:10:06 63° WSW 23:14:11 10° NNW visible
13 Aug ? 21:38:14 12° E 21:40:09 16° ENE 21:42:44 10° NNE visible
13 Aug ? 23:14:34 51° SW 23:15:04 55° W 23:19:07 10° NNW visible
14 Aug ? 21:43:19 14° E 21:45:03 18° ENE 21:47:52 10° NNE visible
14 Aug ? 23:19:39 47° WSW 23:20:01 49° W 23:24:02 10° NNW visible
